OBJECT D, 62380

Orbit data source: Space-Track

You're viewing an Uncataloged Satellite

Recently launched and/or uncataloged satellites may have evolving metadata. Metadata may include but not limited to: Owner, Maufacturer, Bus, Motor, and Mission.

OBJECT D, 62380 is a satellite in LEO that was launched on Sat, 21 Dec 2024 UTC via an FALCON 9 launch vehicle from the Air Force Western Test Range (AFWTR). Unknown objects in Earth's orbit typically refer to objects detected orbiting the Earth but have not yet been identified or cataloged. These objects could be anything from previously untracked satellites, spent rocket stages, debris from satellite collisions, or even natural meteoroids temporarily captured by Earth's gravity.

Loading next visibility...
Identifier
62380, 2024-247D
Orbit
LEO
Last TLE update
17 hours ago
Origin
Flag of TBDONDO (TBD)
Manufacturer
ONDO Space
Mission
Operational Commercial Communications
Bus & Motor
CUBESAT 0.5U, Unknown motor
Mass
0.25 kg wet, 0.25 kg dry
Launch date (UTC)
2024-12-21 (5 months ago)
Launch vehicle
FALCON 9
Launch site
Air Force Western Test Range (AFWTR)
Object type
Unknown
Shape & HBR
Box, 0.05 m
Radar Cross Section
0.004 m², Medium (>0.1 m² and < 1m²)

Expand to show TLE details & history

TLE from 17 hours ago
0 OBJECT D
1 62380U 24247D   25128.88240709  .00008529  00000-0  37207-3 0  9990
2 62380  44.9969 333.3916 0002232 268.9667  91.0958 15.22586228 21212
Epoch: 2025-05-08T21:10Z
Definitive object data (Epoch: 2025-05-08T21:10:39.972Z)
Latitude
-0.00005°
Longitude
148.77848°
Altitude
498.071 km
Speed
7.617 km/s
True Right ascension
22h 13m 33s
True Declination
0° 00' 00"
Sunlit
Object was in daylight at TLE epoch
Visualization TLE readout
Latitude
-7.14624°
Longitude
137.71322°
Altitude
498.86 km
Speed
7.617 km/s
Apparent Right ascension
19h 13m 57s
Apparent Declination
-62° 22' 02"
Sunlit
Object is in daylight
Visualization observer readout
Local Sidereal Time
22:37:24
Azimuth
202.527° SW
Elevation
-20.118°
Doppler factor
1
Orbital elements
Apogee altitude
501.184 km
Perigee altitude
498.114 km
Semi-major axis
6,877.786 km
Eccentricity
0.0002232
Inclination
44.9969°
RAAN
333.3916°
Arg. of periapsis
268.9667°
True anomaly
91.12137°
Mean anomaly
91.0958°
Eccentric anomaly
91.10859°
Mean motion
3.80514 °/min
BSTAR
0.00037207
Orbital period
94.61 mins
Loading maneuver chart data...
Loading SW <> Apogee altitude chart data...
Loading historical data...
Loading historical data...
Loading historical data...
Loading historical data...
Loading historical data...
Loading historical data...
Loading historical data...

OBJECT D Visibility forecast

Observer location: undefined°, undefined°

Span
Click to sort rows by Start time (UTC) header in descending order
Start Az.
Max El. time (UTC)
Max El. Az.
Max El.
End time (UTC)
End Az.
6 mins2025-05-09 16:15:15.868Z201.9° SSW2025-05-09 16:18:15.868Z142.529° SSE25.809°2025-05-09 16:21:15.868Z85.603° E
5 mins2025-05-09 17:55:15.868Z264.942° W2025-05-09 17:57:15.868Z352.966° N42.341°2025-05-09 18:00:15.868Z61.982° ENE
5 mins2025-05-09 19:34:15.868Z299.04° NW2025-05-09 19:36:15.868Z343.607° N30.619°2025-05-09 19:39:15.868Z61.139° ENE
5 mins2025-05-09 21:14:15.868Z306.675° NW2025-05-09 21:16:15.868Z24.283° NE40.518°2025-05-09 21:19:15.868Z95.748° ESE
5 mins2025-05-09 22:53:15.868Z265.622° W2025-05-09 22:55:15.868Z211.886° SW29.613°2025-05-09 22:58:15.868Z150.907° SSE
|